Theta_e
323 324 328 330 333 329 331 329 326 327 326 325 323 323 322 323 328 331 340 339 340 341 344 342 339 339 339 339 339 339 338 338 335 334 337 335 334 330 331 329 328 331 332 329 328 329 327 328 326
322 324 328 330 334 333 331 327 327 327 325 324 324 324 325 324 326 331 340 340 340 341 344 344 338 338 338 338 338 338 338 337 333 336 336 337 334 333 331 331 329 329 330 328 329 328 326 326 323
321 325 328 332 333 335 330 327 327 326 324 325 325 326 326 326 335 339 340 341 341 342 343 343 338 337 336 336 337 337 337 336 334 336 335 336 336 334 331 329 329 327 332 329 327 327 327 326 325
322 325 328 332 329 328 329 327 326 326 325 324 325 327 327 334 337 340 340 341 341 342 343 342 339 337 333 334 334 335 335 334 335 336 336 337 335 333 330 327 328 328 329 327 326 326 327 327 326
322 326 327 330 326 325 328 327 326 327 327 326 326 328 328 331 339 339 341 341 341 341 342 341 339 338 336 334 335 334 335 335 336 337 337 336 334 331 329 327 326 327 329 327 326 326 327 328 326
320 323 325 325 322 323 325 327 327 327 327 327 327 328 328 337 338 340 341 341 340 341 341 342 340 339 337 335 334 334 334 334 335 336 336 336 333 330 327 326 326 327 328 327 326 325 324 323 325
316 320 319 318 319 320 324 325 327 328 328 329 327 329 328 329 338 339 341 340 340 340 341 341 340 338 336 334 331 331 332 333 333 335 336 335 333 329 327 326 325 326 327 327 326 324 320 317 316
317 319 316 315 317 319 320 324 325 326 326 325 325 327 328 335 337 337 339 340 340 339 341 341 340 339 337 335 329 328 327 331 333 333 334 335 332 328 326 326 326 326 326 325 324 320 317 316 316
315 315 312 312 314 315 318 321 322 319 322 324 324 324 329 332 337 338 337 337 338 339 340 340 339 339 336 333 331 326 326 326 331 331 334 333 333 328 327 328 325 324 324 322 317 315 313 314 316
312 308 306 308 313 314 315 315 315 318 322 323 324 324 321 323 333 335 336 338 338 338 340 339 338 338 336 332 332 331 335 335 335 334 334 334 331 329 328 327 326 324 320 315 313 310 309 312 318
305 306 304 307 309 309 311 312 313 315 319 320 322 320 317 316 323 333 333 336 337 338 339 339 338 337 335 331 334 333 336 335 335 335 334 331 331 329 328 328 326 325 317 317 315 312 315 317 318
304 303 304 303 304 304 304 306 309 310 313 314 313 313 312 317 321 328 332 333 335 337 338 338 338 337 335 332 336 334 335 336 335 334 332 331 329 327 326 325 325 325 319 318 316 317 319 320 321
303 302 301 301 302 302 302 302 303 304 306 306 307 308 310 316 320 322 328 334 334 336 337 337 336 336 334 332 333 332 333 334 334 333 332 330 328 326 325 324 323 322 318 316 315 318 319 320 320
301 302 302 302 302 302 303 302 301 300 302 304 306 308 311 315 317 319 323 326 333 334 336 336 335 335 334 332 331 331 331 332 333 333 331 329 327 326 325 324 322 319 317 315 315 318 319 319 319
302 303 302 302 301 301 301 301 300 301 301 301 302 305 307 309 311 313 319 324 329 334 334 335 335 335 333 331 330 331 330 331 332 332 331 329 327 325 324 323 322 318 316 315 318 321 321 320 320
302 302 304 302 301 301 301 301 301 300 300 301 301 302 304 308 309 310 314 321 325 331 332 334 334 334 333 331 329 329 330 332 332 332 330 328 326 324 323 323 321 317 316 317 321 322 321 321 322
303 304 304 303 301 301 301 301 301 300 299 299 299 299 301 305 310 313 317 322 327 330 332 332 333 333 331 330 329 328 329 331 330 329 328 327 325 323 322 321 319 317 316 319 322 322 321 321 322
304 303 303 303 301 300 301 302 301 301 300 300 300 301 302 303 305 308 314 323 326 331 333 331 332 332 331 330 329 329 329 329 328 328 330 325 323 322 322 320 318 316 317 320 322 322 322 322 323
303 304 303 303 301 300 301 301 301 301 301 302 302 302 302 302 306 311 311 322 326 329 333 330 331 330 330 331 330 329 328 327 327 326 327 323 321 322 322 322 319 317 317 321 322 323 323 324 322
304 305 306 304 302 300 301 301 301 300 300 300 301 301 303 303 305 316 321 321 323 325 331 331 331 330 330 330 329 329 328 328 328 326 324 322 321 323 323 323 322 320 318 322 323 323 324 324 322
305 305 305 305 303 301 300 302 301 301 300 300 300 300 300 301 304 311 318 318 318 320 328 331 330 330 330 330 329 328 328 328 328 325 324 323 321 322 323 324 323 323 323 322 323 323 324 324 323
308 305 305 304 306 305 301 303 301 301 301 301 301 300 300 301 302 310 315 313 313 312 320 322 327 331 330 330 328 327 328 326 326 326 325 324 322 322 324 324 324 324 323 324 324 324 324 324 324
308 305 306 304 305 304 303 303 301 300 300 300 301 300 301 302 303 314 311 307 306 309 314 319 323 328 328 330 329 328 327 327 327 327 326 325 323 322 324 325 324 324 324 323 324 324 324 324 324
304 304 303 303 304 305 303 304 302 301 301 301 301 300 301 303 310 307 306 305 304 305 310 316 318 319 323 327 327 329 329 328 328 327 326 326 325 323 323 324 324 324 323 324 324 324 324 323 324
305 304 305 305 305 303 300 302 303 303 305 305 304 301 305 309 306 305 305 304 302 302 304 310 312 311 318 320 322 323 326 325 329 328 327 327 326 325 324 324 324 324 324 324 324 324 324 324 324
305 304 305 304 302 302 299 302 303 304 303 303 304 307 306 304 303 302 302 301 300 299 300 303 305 308 311 315 314 316 320 322 323 323 327 327 327 326 325 325 324 325 325 325 325 325 325 324 324
307 306 303 307 305 307 306 307 305 302 304 307 305 303 303 301 300 300 299 298 298 297 297 298 299 300 303 306 308 310 313 315 317 321 323 327 327 326 326 325 325 325 325 326 325 326 326 325 325
306 305 307 308 307 313 310 307 303 303 303 303 302 300 299 299 298 298 298 297 296 296 296 296 297 297 300 301 304 304 305 308 309 309 314 313 317 319 319 321 321 323 323 322 323 322 321 320 315
305 307 308 309 306 314 310 305 301 302 301 301 300 299 299 298 296 296 296 296 295 295 295 295 296 297 298 297 299 301 300 302 304 305 307 308 311 312 314 311 314 313 315 312 309 313 311 310 308
302 306 307 310 310 307 305 303 299 300 300 299 298 297 296 296 294 293 294 294 295 295 294 294 296 297 297 296 297 297 298 299 301 300 301 305 307 308 307 308 309 309 308 309 306 304 305 304 301
Wind_Speed
10 8 4 3 6 6 15 12 8 5 4 3 2 7 6 5 5 2 4 12 9 24 27 29 28 28 27 25 25 25 26 26 25 23 21 20 20 20 17 21 20 17 20 17 16 14 14 14 16
8 4 2 2 8 15 14 14 14 11 5 1 5 6 7 7 3 3 1 8 14 25 27 27 29 28 27 26 26 26 26 25 25 23 23 21 19 19 17 19 20 17 16 17 15 13 14 15 14
2 2 4 4 13 21 18 13 16 11 6 7 5 5 3 2 1 2 2 9 17 25 26 28 30 29 28 28 26 25 26 24 25 25 24 22 20 19 18 19 20 17 17 16 13 13 14 15 15
2 5 3 12 24 20 23 17 13 12 10 7 5 8 3 2 1 1 3 13 21 23 25 28 32 29 28 28 27 26 25 24 25 25 25 22 21 20 20 22 20 19 17 15 14 13 14 15 14
3 3 12 17 28 27 10 12 15 14 9 6 2 5 4 1 4 4 4 15 23 22 21 27 31 29 28 28 27 25 24 24 24 23 24 24 21 19 19 21 21 21 18 16 13 13 14 14 12
5 5 10 22 28 24 22 13 9 12 12 10 8 11 8 2 4 2 7 15 19 23 21 25 30 29 27 27 27 25 24 22 22 22 23 24 22 18 17 19 20 20 17 16 13 12 13 13 11
9 10 21 24 25 24 23 18 19 18 17 14 5 8 5 5 5 0 9 15 19 22 23 23 25 26 26 25 26 26 25 23 22 21 22 23 23 20 18 19 19 17 16 15 14 12 12 11 11
4 6 14 19 21 28 13 9 11 19 24 19 11 8 11 5 3 3 9 14 19 22 24 22 23 22 20 22 24 24 24 26 24 22 22 23 23 21 19 18 18 17 16 15 14 13 12 10 10
3 7 14 20 17 16 11 14 13 6 7 9 10 12 5 9 0 4 6 11 18 23 26 25 21 21 20 19 21 23 21 23 25 24 24 25 19 20 18 17 15 16 16 15 14 13 12 11 10
8 7 12 8 5 9 7 6 6 6 12 11 10 7 7 11 5 6 8 14 17 23 24 27 26 21 20 18 19 21 20 21 24 24 27 21 20 18 16 15 17 15 16 15 13 13 12 11 8
4 8 6 11 7 9 9 12 9 7 14 12 10 9 16 18 12 9 11 15 20 23 25 29 30 24 22 20 21 22 20 23 24 25 26 24 19 18 16 15 16 13 14 12 12 11 9 9 8
8 9 10 8 9 10 14 13 15 14 15 12 12 11 14 16 12 13 14 17 19 24 25 30 31 29 25 22 23 21 22 26 25 26 25 21 19 19 17 16 15 15 15 13 12 10 9 9 8
13 13 12 12 14 16 17 19 20 21 16 15 21 19 18 16 14 14 14 17 20 23 28 33 33 32 26 25 24 25 22 26 23 22 23 21 20 19 17 16 15 16 14 13 12 10 9 9 8
8 14 17 16 15 12 15 19 17 17 12 13 13 16 15 16 15 16 14 16 19 23 29 30 32 36 31 26 26 28 27 27 23 22 23 22 19 18 18 16 15 15 14 13 12 11 10 9 9
11 17 18 18 17 15 12 22 25 17 16 20 18 16 16 19 24 21 18 16 18 21 27 32 36 36 33 27 25 29 28 27 24 23 23 23 20 19 18 16 16 16 14 13 12 11 9 10 9
11 13 12 2 6 6 9 25 16 6 11 16 17 16 19 17 21 24 23 20 17 19 24 29 35 33 29 30 27 29 25 24 24 24 23 24 21 19 18 17 17 17 15 14 13 11 10 10 11
8 12 18 17 14 5 14 19 14 7 14 19 19 18 18 17 19 20 20 19 17 18 25 30 36 36 30 28 29 27 27 22 23 23 27 28 22 20 18 17 17 18 16 16 15 13 12 12 11
10 12 15 16 0 14 15 24 20 18 16 18 17 14 13 16 20 22 18 18 16 17 25 31 32 32 30 30 30 29 29 24 19 28 33 32 24 21 20 17 17 19 18 17 16 15 15 14 11
19 20 25 20 8 11 19 23 25 20 18 19 19 17 17 19 17 24 22 16 15 14 25 29 29 33 31 27 28 26 28 31 22 26 34 33 28 21 21 18 18 20 21 20 19 17 17 15 12
22 24 28 26 18 14 21 25 24 22 20 21 20 19 17 17 17 15 16 12 12 12 25 28 31 32 36 31 30 26 28 27 29 22 31 33 30 24 23 21 20 21 20 21 20 20 18 17 20
21 25 24 24 12 17 19 21 23 24 21 23 23 21 20 19 17 15 13 11 9 8 13 26 30 32 34 33 31 29 23 22 23 23 26 35 33 31 27 23 21 21 22 22 21 22 21 19 20
22 24 26 23 12 11 14 10 16 19 20 22 23 21 20 20 18 13 10 7 5 5 10 11 12 30 38 34 32 33 30 29 32 31 32 34 33 29 26 25 24 23 24 23 22 22 23 20 17
19 12 12 17 14 18 22 8 17 19 18 21 22 20 21 20 17 13 7 4 1 3 6 8 9 12 18 39 35 36 31 27 22 25 27 27 31 33 31 29 29 28 26 30 26 24 25 24 21
4 2 5 9 10 12 18 17 17 17 22 23 23 20 21 15 10 8 8 6 4 2 3 5 6 6 7 13 19 20 24 28 29 28 25 26 27 32 32 32 32 33 33 32 32 31 32 33 31
4 6 3 4 6 8 2 11 17 10 8 9 13 20 15 15 11 9 8 9 6 7 3 9 7 11 5 5 4 7 11 12 21 27 30 25 26 27 33 32 33 32 34 32 31 35 36 35 32
10 7 4 6 5 4 4 7 3 12 12 16 16 14 17 13 9 7 6 12 7 9 9 12 10 13 8 2 1 4 7 14 18 21 25 31 29 28 27 31 30 29 29 32 31 31 31 32 34
5 9 5 5 5 6 6 2 4 16 8 11 16 15 13 12 10 8 8 13 11 11 16 14 14 14 15 9 4 4 2 7 13 18 23 34 30 29 28 29 37 32 30 30 31 36 33 33 32
6 2 4 5 4 5 4 3 11 15 10 12 16 14 14 12 12 10 7 13 12 15 20 17 18 19 21 14 15 12 6 3 3 5 13 15 23 23 20 19 16 20 18 20 27 24 22 19 14
7 5 5 4 6 4 3 4 13 12 10 10 11 12 13 13 13 9 6 12 14 22 22 20 25 27 22 18 18 18 14 12 13 13 14 14 16 14 11 11 15 12 11 12 17 20 16 16 16
7 10 4 4 2 4 3 4 14 11 11 10 14 13 13 13 11 8 9 12 18 21 24 25 29 29 24 22 23 23 22 21 21 22 19 16 19 18 15 15 15 16 15 12 12 20 19 18 18
Wind_Direction
324 322 324 259 241 235 237 226 257 196 196 188 183 218 229 297 215 263 338 188 166 170 168 170 175 171 171 170 166 161 158 157 155 152 151 147 141 138 136 139 139 129 127 124 130 127 123 120 123
319 320 239 254 243 238 233 229 228 220 136 216 243 223 242 249 278 302 96 181 175 172 168 170 175 173 172 174 170 164 162 163 157 157 156 153 150 143 143 143 142 143 139 134 132 126 128 126 120
299 256 235 220 237 241 243 199 242 225 230 261 267 253 249 231 189 295 203 172 174 177 172 172 174 176 173 170 167 167 166 167 161 164 162 158 154 150 149 149 142 146 141 140 134 129 131 130 123
234 187 226 238 238 237 248 243 249 247 234 236 250 254 216 273 330 216 211 170 174 178 175 177 175 177 174 173 172 171 170 168 169 169 166 163 160 158 151 152 151 149 146 144 139 133 136 138 129
234 223 230 235 247 245 218 260 244 248 250 201 226 229 265 249 318 279 194 177 172 176 180 176 178 179 178 179 176 176 179 176 176 174 172 165 167 161 157 157 157 154 153 149 144 137 136 143 137
203 243 230 232 236 239 240 219 229 236 247 253 256 267 266 60 350 293 179 178 174 170 179 177 183 180 182 184 184 183 186 184 182 181 176 169 169 163 159 160 158 158 156 154 150 145 141 142 143
244 216 240 245 243 239 230 215 233 241 240 233 265 266 284 307 25 355 176 177 175 175 174 182 186 185 187 187 189 189 190 190 188 184 181 173 168 163 160 161 158 159 160 160 158 155 150 146 148
258 257 246 240 245 246 225 233 241 234 251 254 245 251 255 46 53 156 175 175 180 182 179 184 185 183 188 190 190 193 193 195 191 186 184 175 171 169 166 167 163 165 163 165 165 166 161 156 150
235 244 248 243 240 244 243 252 231 318 270 233 227 245 5 350 22 159 180 188 183 186 186 185 184 184 189 189 191 190 187 189 188 184 183 176 170 170 167 167 175 181 176 172 172 172 172 169 160
224 239 257 272 299 254 291 261 296 291 233 238 239 239 354 0 301 272 210 201 199 193 187 190 188 188 188 189 189 184 182 186 185 176 174 174 169 165 169 174 180 187 182 177 176 177 174 164 169
231 248 286 263 296 301 284 279 266 264 250 241 270 317 325 329 324 259 243 233 217 204 192 189 192 189 188 192 186 187 180 180 178 177 172 172 172 173 170 173 180 186 184 176 176 175 175 181 179
263 254 262 277 287 295 275 288 270 262 270 296 291 297 306 307 296 286 258 243 232 212 203 195 195 195 191 192 187 187 180 175 176 177 176 178 176 172 177 183 192 191 188 189 184 186 186 184 184
257 269 268 270 268 269 276 264 267 270 273 281 282 282 283 280 286 284 279 261 230 221 209 201 205 195 188 192 192 191 188 186 180 182 186 187 183 178 179 181 187 191 192 193 191 191 190 191 191
295 285 281 270 266 266 266 265 260 254 269 272 268 278 270 268 280 290 281 265 239 226 210 205 195 197 193 195 192 196 192 191 187 189 190 192 189 184 182 182 184 192 194 195 195 197 196 196 196
284 290 289 268 250 250 256 265 250 255 251 259 259 268 268 263 268 270 276 274 261 236 221 202 202 197 189 191 193 198 199 195 194 196 194 195 193 189 187 188 186 191 195 196 195 197 196 197 195
276 278 283 311 230 233 203 268 261 270 232 246 248 252 259 264 268 266 264 263 265 249 223 200 191 193 191 189 191 201 201 196 198 201 196 198 196 193 193 195 191 188 193 195 199 200 200 199 193
222 265 249 271 235 233 207 265 277 265 248 257 261 252 256 260 264 261 260 256 259 244 218 202 191 193 192 190 194 201 208 200 203 201 200 200 196 197 197 200 194 186 191 196 198 201 203 198 198
243 240 252 251 131 220 232 249 262 268 263 262 261 257 256 264 255 258 259 257 257 246 221 205 196 193 199 195 193 197 209 207 209 210 211 208 201 200 198 199 197 189 194 199 201 203 201 200 197
272 268 269 271 279 252 242 254 263 262 262 260 256 255 252 260 263 260 249 243 251 245 210 199 191 195 193 192 184 184 195 210 213 213 215 214 206 201 198 200 200 198 200 203 204 202 203 206 191
249 257 259 269 254 236 258 258 260 263 258 259 261 249 248 253 257 250 229 231 241 246 214 199 199 199 198 199 194 193 202 210 217 214 214 215 209 204 200 200 201 201 203 206 204 202 205 212 197
237 239 256 254 279 237 265 268 263 258 248 253 251 249 248 248 253 247 230 226 239 230 210 213 202 199 194 198 197 199 211 216 217 211 213 215 213 211 208 205 204 203 206 210 211 208 208 209 210
255 238 250 262 256 250 201 269 262 251 243 241 248 237 232 240 238 242 215 220 236 248 205 210 200 203 205 211 202 201 201 203 211 211 214 214 216 214 213 211 211 211 211 213 215 214 214 217 211
268 288 235 240 251 264 248 254 258 250 255 247 245 234 225 228 229 204 189 184 217 240 221 217 212 202 207 197 201 203 211 210 210 210 214 211 215 216 216 216 213 214 215 223 221 218 215 218 221
294 128 202 237 246 247 249 220 263 245 243 254 243 222 216 207 162 151 153 139 99 120 175 177 179 148 175 167 199 211 228 210 206 195 204 209 211 215 217 220 219 223 224 225 227 225 228 226 226
163 160 210 224 218 254 313 208 253 323 237 241 263 211 177 154 142 150 150 114 87 73 84 126 125 96 114 174 155 216 230 256 187 204 210 214 213 211 216 215 219 221 226 227 228 232 233 229 220
192 192 195 239 224 287 146 238 231 314 273 261 258 150 144 117 124 134 133 100 94 78 73 90 99 91 92 96 357 229 263 267 259 244 223 215 217 213 216 215 216 222 227 230 234 233 233 233 228
169 218 204 275 244 272 200 307 212 349 314 158 119 131 103 108 114 107 90 92 87 79 74 78 87 81 84 72 84 45 360 261 254 250 251 201 212 209 211 216 219 223 228 238 246 231 228 226 227
258 114 193 212 265 234 93 54 336 339 6 114 108 107 101 104 99 77 82 93 91 88 80 74 76 76 72 70 72 71 64 99 167 180 175 171 178 176 180 184 195 197 218 223 227 218 213 209 183
319 269 247 233 236 313 62 23 343 8 26 74 95 95 95 92 78 69 65 77 85 79 77 73 72 73 77 78 85 88 80 92 106 111 109 116 128 128 145 155 162 166 184 185 170 163 158 158 145
293 292 235 271 76 48 81 42 353 21 35 64 77 79 79 78 67 68 70 78 76 77 70 65 70 73 77 82 87 88 89 86 90 93 92 99 106 114 119 116 120 127 125 128 142 127 124 128 128